Location: Haliburton Scout Reserve
(45.0900°N, 78.3200°W)
Time: 07:43:06
(UTC-04:00)

Tiros 1 despin weight - Pass Details

Date: 14 March 2024
Orbit: 579 x 623 km, 48.2° (Epoch: 21 April)

Event Time Altitude Azimuth Distance (km) Brightness Sun altitude
Exits shadow 04:47:15 43° 96° (E) 846 ? -28.0°
Drops below altitude 10° 04:50:27 10° 73° (ENE) 1,938 ? -27.5°
Sets 04:52:44 0° 70° (ENE) 2,834 ? -27.2°
